EW8288 Weather Reports


time (UTC)temp
C
wind
direction
speed
KPH
gust
KPH
rain 1hr
cm
rain 24hr
cm
rain mn
cm
humidity
%
barometer
mb
20260507224226 14 198 0.0 0.0 0.00 0.00 0.00 67 1014.9
20260507223225 14 198 0.0 0.0 0.00 0.00 0.00 67 1014.9
20260507222226 14 198 0.0 0.0 0.00 0.00 0.00 66 1014.6
20260507221227 14 198 0.0 3.2 0.00 0.00 0.00 65 1014.6
20260507220224 14 198 0.0 9.7 0.00 0.00 0.00 65 1014.6
20260507215227 14 197 0.0 4.8 0.00 0.00 0.00 67 1014.2
20260507214226 14 197 0.0 4.8 0.00 0.00 0.00 67 1014.2
20260507213224 14 197 0.0 1.6 0.00 0.00 0.00 68 1014.2
20260507212224 14 197 0.0 0.0 0.00 0.00 0.00 67 1014.2
20260507211226 14 197 0.0 0.0 0.00 0.00 0.00 67 1014.2
20260507210225 14 197 0.0 1.6 0.00 0.00 0.00 66 1014.2
20260507205226 14 197 0.0 0.0 0.00 0.00 0.00 66 1013.9
20260507204441 15 197 0.0 0.0 0.00 0.00 0.00 64 1013.9
20260507203440 15 197 0.0 0.0 0.00 0.00 0.00 64 1013.5
20260507202440 15 197 0.0 1.6 0.00 0.00 0.00 63 1013.5
20260507201224 15 197 0.0 0.0 0.00 0.00 0.00 63 1013.5
20260507200226 15 197 0.0 4.8 0.00 0.00 0.00 65 1013.2
20260507195226 15 197 0.0 3.2 0.00 0.00 0.00 67 1013.2
20260507194224 15 197 0.0 0.0 0.00 0.00 0.00 68 1013.2
20260507193224 15 197 0.0 1.6 0.00 0.00 0.00 69 1012.9
20260507192226 15 197 0.0 1.6 0.00 0.00 0.00 69 1012.9
20260507191442 15 197 0.0 0.0 0.00 0.00 0.00 68 1012.5
20260507190226 15 197 0.0 0.0 0.00 0.00 0.00 69 1012.5
20260507185439 15 197 0.0 0.0 0.00 0.00 0.00 71 1012.5
20260507184227 15 197 0.0 3.2 0.00 0.00 0.00 71 1012.2
20260507183225 15 197 0.0 1.6 0.00 0.00 0.00 71 1012.2
20260507182226 15 197 0.0 3.2 0.00 0.00 0.00 72 1012.2
20260507181225 15 197 0.0 3.2 0.00 0.00 0.00 72 1011.9
20260507180224 15 197 0.0 3.2 0.00 0.00 0.00 71 1011.9
20260507175225 15 197 0.0 1.6 0.00 0.00 0.00 70 1011.9
20260507174439 15 197 0.0 6.4 0.00 0.00 0.00 70 1011.5
20260507173227 15 197 0.0 8.0 0.00 0.00 0.00 70 1011.2
20260507172224 16 196 3.2 3.2 0.00 0.00 0.00 67 1011.2
20260507171232 16 196 0.0 8.0 0.00 0.00 0.00 63 1011.2
20260507170224 16 196 0.0 11.3 0.00 0.00 0.00 63 1010.8
20260507165226 16 211 4.8 9.7 0.00 0.00 0.00 63 1011.2
20260507164227 17 213 3.2 8.0 0.00 0.00 0.00 61 1010.8
20260507163440 17 205 3.2 11.3 0.00 0.00 0.00 58 1010.8
20260507162440 17 215 0.0 9.7 0.00 0.00 0.00 56 1010.8
20260507161225 17 215 0.0 9.7 0.00 0.00 0.00 56 1010.8
20260507160224 18 218 8.0 12.9 0.00 0.00 0.00 53 1010.8
20260507155224 19 205 3.2 6.4 0.00 0.00 0.00 46 1010.8
20260507154226 20 225 0.0 1.6 0.00 0.00 0.00 45 1010.5
20260507153224 20 229 0.0 0.0 0.00 0.00 0.00 43 1010.5
20260507152225 21 231 0.0 1.6 0.00 0.00 0.00 41 1010.5
20260507151225 22 232 0.0 3.2 0.00 0.00 0.00 37 1010.5
20260507150440 22 9 0.0 0.0 0.00 0.00 0.00 37 1010.5
20260507145226 22 9 0.0 1.6 0.00 0.00 0.00 36 1010.5
20260507144224 22 13 0.0 12.9 0.00 0.00 0.00 37 1010.5
20260507143226 21 360 0.0 1.6 0.00 0.00 0.00 39 1010.5
20260507142226 21 351 0.0 9.7 0.00 0.00 0.00 40 1010.5
20260507141224 21 207 0.0 0.0 0.00 0.00 0.00 38 1010.5
20260507140225 21 206 0.0 1.6 0.00 0.00 0.00 38 1010.5
20260507135226 22 206 0.0 1.6 0.00 0.00 0.00 37 1010.5
20260507134226 21 205 0.0 1.6 0.00 0.00 0.00 40 1010.5
20260507133441 20 205 0.0 3.2 0.00 0.00 0.00 41 1010.5
20260507132440 20 205 0.0 3.2 0.00 0.00 0.00 41 1010.5
20260507131441 21 205 0.0 4.8 0.00 0.00 0.00 41 1010.8
20260507130225 20 205 0.0 3.2 0.00 0.00 0.00 43 1010.8
20260507125226 21 205 0.0 3.2 0.00 0.00 0.00 42 1010.8
20260507124226 21 204 0.0 9.7 0.00 0.00 0.00 41 1010.8
20260507123227 20 222 0.0 6.4 0.00 0.00 0.00 45 1010.8
20260507122225 21 222 0.0 4.8 0.00 0.00 0.00 43 1011.2
20260507121227 20 221 0.0 1.6 0.00 0.00 0.00 45 1011.2
20260507120225 20 222 0.0 6.4 0.00 0.00 0.00 45 1011.2
20260507115225 20 221 0.0 11.3 0.00 0.00 0.00 46 1011.2
20260507114226 20 269 0.0 12.9 0.00 0.00 0.00 45 1011.5
20260507113438 20 248 0.0 4.8 0.00 0.00 0.00 47 1011.5
20260507112226 20 248 0.0 1.6 0.00 0.00 0.00 46 1011.5
20260507111225 20 248 0.0 14.5 0.00 0.00 0.00 47 1011.5
20260507110224 20 262 0.0 12.9 0.00 0.00 0.00 45 1011.5
20260507105227 20 261 0.0 12.9 0.00 0.00 0.00 46 1011.5
20260507104226 20 221 0.0 14.5 0.00 0.00 0.00 46 1011.5
20260507103235 20 244 0.0 11.3 0.00 0.00 0.00 46 1011.9
20260507102440 20 221 8.0 9.7 0.00 0.00 0.00 45 1011.9
20260507101224 18 219 1.6 6.4 0.00 0.00 0.00 50 1011.9
20260507100226 18 214 0.0 12.9 0.00 0.00 0.00 50 1011.9
20260507095226 18 223 0.0 11.3 0.00 0.00 0.00 51 1011.9
20260507094224 18 223 0.0 11.3 0.00 0.00 0.00 51 1011.9
20260507093226 18 216 4.8 8.0 0.00 0.00 0.00 54 1011.5
20260507092226 18 221 3.2 14.5 0.00 0.00 0.00 53 1011.5
20260507091226 18 217 0.0 12.9 0.00 0.00 0.00 54 1011.5
20260507090224 17 219 6.4 8.0 0.00 0.00 0.00 56 1011.2
20260507085224 17 219 0.0 11.3 0.00 0.00 0.00 57 1011.2
20260507084225 17 215 0.0 9.7 0.00 0.00 0.00 59 1011.2
20260507083441 16 215 0.0 6.4 0.00 0.00 0.00 60 1011.2
20260507082226 16 213 6.4 12.9 0.00 0.00 0.00 59 1011.2
20260507081225 16 217 4.8 12.9 0.00 0.00 0.00 59 1011.2
20260507080226 16 236 1.6 11.3 0.00 0.00 0.00 59 1011.2
20260507075224 16 214 3.2 9.7 0.00 0.00 0.00 61 1011.2
20260507074225 16 213 0.0 11.3 0.00 0.00 0.00 61 1010.8
20260507073226 16 224 0.0 6.4 0.00 0.00 0.00 63 1010.8
20260507072227 15 226 0.0 9.7 0.00 0.00 0.00 64 1010.8
20260507071236 15 227 3.2 6.4 0.00 0.00 0.00 65 1010.8
20260507070446 15 227 3.2 12.9 0.00 0.00 0.00 67 1010.5
20260507065226 14 205 1.6 16.1 0.00 0.00 0.00 69 1010.8
20260507064228 14 237 0.0 12.9 0.00 0.00 0.00 69 1010.5
20260507063227 14 221 0.0 12.9 0.00 0.00 0.00 71 1010.8
20260507062226 14 223 6.4 9.7 0.00 0.00 0.00 73 1010.5
20260507061227 13 221 3.2 8.0 0.00 0.00 0.00 74 1010.5
20260507060439 13 222 0.0 6.4 0.00 0.00 0.00 74 1010.5
20260507055227 14 222 0.0 8.0 0.00 0.00 0.00 74 1010.2
20260507054228 13 223 0.0 9.7 0.00 0.00 0.00 74 1010.2
20260507053225 13 221 0.0 0.0 0.00 0.00 0.00 75 1010.2
20260507052228 13 221 0.0 8.0 0.00 0.00 0.00 75 1010.2
20260507051441 13 221 3.2 14.5 0.00 0.00 0.00 75 1010.2
20260507050225 13 221 1.6 12.9 0.00 0.00 0.00 76 1009.8
20260507045226 13 217 1.6 9.7 0.00 0.00 0.00 76 1009.8
20260507044225 13 219 0.0 11.3 0.00 0.00 0.00 77 1009.5
20260507043225 12 217 4.8 9.7 0.00 0.00 0.00 78 1009.5
20260507042441 12 219 0.0 4.8 0.00 0.00 0.00 78 1009.1
20260507041226 12 219 0.0 6.4 0.00 0.00 0.00 78 1009.1
20260507040225 12 219 3.2 4.8 0.00 0.00 0.00 78 1009.1
20260507035227 12 219 0.0 3.2 0.00 0.00 0.00 78 1009.1
20260507034227 13 219 0.0 4.8 0.00 0.00 0.00 77 1008.8
20260507033227 13 219 0.0 6.4 0.00 0.00 0.00 76 1008.8
20260507032228 13 218 1.6 8.0 0.00 0.00 0.00 76 1008.8
20260507031442 13 219 3.2 8.0 0.00 0.00 0.00 76 1008.8
20260507030226 13 219 4.8 8.0 0.00 0.00 0.00 75 1008.5
20260507025225 13 219 3.2 8.0 0.00 0.00 0.00 75 1008.5
20260507024439 13 219 0.0 6.4 0.00 0.00 0.00 75 1008.5
20260507023226 14 219 0.0 4.8 0.00 0.00 0.00 75 1008.5
20260507022224 14 219 3.2 8.0 0.00 0.00 0.00 76 1008.5
20260507021440 14 219 0.0 3.2 0.00 0.00 0.00 76 1008.5
20260507020225 14 219 4.8 4.8 0.00 0.00 0.00 76 1008.1
20260507015226 14 219 0.0 0.0 0.00 0.00 0.00 76 1008.1
20260507014225 14 219 0.0 0.0 0.00 0.00 0.00 76 1008.1
20260507013224 14 219 0.0 4.8 0.00 0.00 0.00 76 1008.1
20260507012226 14 219 0.0 1.6 0.00 0.00 0.00 75 1007.8
20260507010224 15 219 0.0 6.4 0.00 0.00 0.00 73 1007.8
20260507005225 15 221 0.0 8.0 0.00 0.00 0.00 72 1007.8
20260507004227 15 205 0.0 3.2 0.00 0.00 0.00 72 1007.5
20260507003230 15 205 0.0 0.0 0.00 0.00 0.00 71 1007.5
20260507002440 15 205 0.0 0.0 0.00 0.00 0.00 70 1007.1
20260507001224 15 205 0.0 0.0 0.00 0.00 0.00 68 1007.1
20260507000226 16 205 0.0 3.2 0.00 0.00 0.00 66 1007.1
20260506235225 16 205 0.0 6.4 0.00 0.00 0.00 65 1007.1
20260506234226 16 205 4.8 8.0 0.00 0.00 0.00 65 1007.1
20260506233440 16 204 0.0 4.8 0.00 0.00 0.00 66 1006.8
20260506232225 16 204 0.0 0.0 0.00 0.00 0.00 65 1006.4
20260506231224 16 204 0.0 4.8 0.00 0.00 0.00 64 1006.4
20260506230225 17 204 0.0 8.0 0.00 0.00 0.00 63 1006.4
20260506225440 17 204 1.6 8.0 0.00 0.00 0.00 63 1006.1